Regional Weather Roundup
Issued by NWS Northern Indiana

Home | Current Version | Previous Version | Text Only | Print | Product List | Glossary Off
Versions: 1 2 3 4 5 6 7 8 9 10 11 12 13 14 15 16 17 18 19 20 21 22 23 24 25 26 27 28 29 30 31 32 33 34 35 36 37 38 39 40 41 42 43 44 45 46 47 48 49 50

000
ASUS43 KIWX 211110
RWRIWX

KIWX WEATHER ROUNDUP
NATIONAL WEATHER SERVICE NORTHERN INDIANA
700 AM EDT MON AUG 21 2017

NOTE: "FAIR" INDICATES FEW OR NO CLOUDS BELOW 12,000 FEET WITH NO
SIGNIFICANT WEATHER AND/OR OBSTRUCTIONS TO VISIBILITY.

* THESE STATIONS ARE NOT UNDER NWS QUALITY CONTROL. THEY ALSO MAY NOT
  REPORT WEATHER SUCH AS PRECIPITATION OR FOG.

INZ001>027-211200-
NORTHERN INDIANA

CITY           SKY/WX    TMP DP  RH WIND       PRES   REMARKS
GARY*          PTCLDY    72  68  88 SE7       30.05S
VALPARAISO     CLOUDY    71  68  90 S5        30.08R
MICHIGAN CITY* CLOUDY    70  64  83 S6        30.07R
LAPORTE*       CLOUDY    68  66  94 CALM      30.09R
KNOX*          CLOUDY    68  66  94 SE5       30.08R
SOUTH BEND     CLOUDY    70  68  93 S5        30.08S
ELKHART*       PTCLDY    72  66  83 S7        30.08
MONTICELLO*    CLOUDY    68  67  96 SE5       30.09R
LOGANSPORT*    MOCLDY    66  64  94 CALM      30.11R FOG
ROCHESTER*     CLOUDY    70  70 100 CALM      30.10S
WARSAW*        HVY RAIN  68  68 100 CALM      30.10F
AUBURN*        MOCLDY    72  64  78 SW5       30.12R
FORT WAYNE     LGT RAIN  70  65  84 W5        30.11R
HUNTINGTON*    CLOUDY    68  66  96 CALM      30.11R
PERU/GRISSOM   PTCLDY    68  68 100 CALM      30.10R

$$
INZ028>050-211200-
CENTRAL INDIANA

CITY           SKY/WX    TMP DP  RH WIND       PRES   REMARKS
LAFAYETTE      PTCLDY    67  67 100 CALM      30.08R
KOKOMO*        CLOUDY    68  66  93 S8        30.12R
MUNCIE*        CLOUDY    75  68  78 S6        30.12S
INDIANAPOLIS   PTCLDY    71  69  93 SE7       30.12R

$$
MIZ043>046-050>051-056>058-064>065-071>073-077>080-211200-
SOUTHWEST LOWER MICHIGAN

CITY           SKY/WX    TMP DP  RH WIND       PRES   REMARKS
BATTLE CREEK   CLOUDY    70  65  84 S5        30.11R
BENTON HARBOR  CLOUDY    73  65  75 CALM      30.07R
COLDWATER*     CLOUDY    69  67  94 CALM      30.11S
HILLSDALE*     CLOUDY    68  64  88 S3        30.12R
HOLLAND        PTCLDY    67  64  90 CALM      30.08R
GRAND RAPIDS   CLOUDY    68  65  90 SE3       30.08R
KALAMAZOO      CLOUDY    71  64  78 S5        30.09R
STURGIS*       MOCLDY    69  65  88 S5        30.10R
THREE RIVERS*  CLOUDY    72  66  81 S5        30.10S

$$
OHZ001>008-015>018-024>025-211200-
NORTHWEST OHIO

CITY           SKY/WX    TMP DP  RH WIND       PRES   REMARKS
WAUSEON*       MOCLDY    68  66  94 S3        30.12R FOG
DEFIANCE       CLOUDY    71  66  84 CALM      30.11R
FINDLAY        PTCLDY    69  64  84 S3        30.12R
TOLEDO EXPRESS CLOUDY    67  67 100 CALM      30.11R FOG
TOLEDO METCALF CLOUDY    70  68  93 CALM      30.12R
LIMA           PTCLDY    69  66  90 VRB5      30.15R

$$
AND FOR LAKE MICHIGAN COASTAL AND OPEN LAKE BUOY OBSERVATIONS

STATION/POSITION TEMP    WIND        PRES    VSBY  WAVE
                 AIR SEA DIR/SP/G                  HT/PER
                 (F)     (DEG/KT/KT) (MB)    (MI)  (FT/S)
CALUMET HARBOR    72     180/  7/ 10 1017.0R
MICHIGAN CITY     72     160/ 13/ 18   N/A
BURNS HARBOR      72     180/  8/ 13 1018.3R
SAINT JOSEPH      73     170/  2/  5 1018.3
SOUTH LAKE BUOY   73 72  210/ 14/ 16 1017.5R         1/ 3
4 MI NW BRIDGMAN  74 74  190/  8/ 12 1017.8          1/ 2
MICHIGAN CITY     73 74  190/ 12/ 16   N/A           1/ 2

$$
&&




USA.gov is the U.S. government's official web portal to all federal, state and local government web resources and services.